Regional Weather Roundup
Issued by NWS

Home | Current Version | Previous Version | Graphics & Text | Print | Product List | Glossary On
Versions: 1 2 3 4 5 6 7 8 9 10 11 12 13 14 15 16 17 18 19 20 21 22 23 24 25 26 27 28 29 30 31 32 33 34 35 36 37 38 39 40 41 42 43 44 45 46 47 48 49 50
000
ASUS43 KFSD 190910
RWRSD

WEATHER ROUNDUP FOR SOUTH DAKOTA
NATIONAL WEATHER SERVICE SIOUX FALLS SD
400 AM CDT THU OCT 19 2017

NOTE: "FAIR" INDICATES FEW OR NO CLOUDS BELOW 12,000 FEET WITH NO
SIGNIFICANT WEATHER AND/OR OBSTRUCTIONS TO VISIBILITY.


SDZ001>005-009-010-012>017-191000-
NORTHWEST AND NORTH CENTRAL SOUTH DAKOTA

CITY           SKY/WX    TMP DP  RH WIND       PRES   REMARKS
BUFFALO          N/A     46  26  45 CALM      29.78F
FAITH            N/A     44  31  60 S21       29.85F
MOBRIDGE       CLOUDY    52  36  54 S21       29.85F
$$

SDZ012>016-024>037-041>051-057-063-072>074-191000-
SOUTHWEST AND SOUTH CENTRAL SOUTH DAKOTA

CITY           SKY/WX    TMP DP  RH WIND       PRES   REMARKS
RAPID CTY ARPT CLOUDY    49  29  46 S12       29.91F
PIERRE         CLOUDY    42  32  67 SE10      29.92F
CUSTER         CLOUDY    50  19  29 W9        30.01S
ELLSWORTH AFB  CLOUDY    51  27  39 S6        29.89S
PHILIP         CLOUDY    49  35  58 S6        29.90F
PINE RIDGE     CLOUDY    54  33  45 SW10G21   29.98F
SPEARFISH      FAIR      64  18  16 SW13G21   29.89S
WINNER         FAIR      54  35  48 S18G25    29.97S
$$

SDZ004>011-016>023-039-040-191000-
NORTHEAST SOUTH DAKOTA

CITY           SKY/WX    TMP DP  RH WIND       PRES   REMARKS
ABERDEEN       CLOUDY    35  30  82 S8        29.96F WCI  29
WATERTOWN      CLOUDY    38  32  79 SE6       29.99F
BROOKINGS      CLOUDY    40  31  70 CALM      30.02F
SISSETON         N/A     50  28  42 S3        29.95F
$$

SDZ017-020-022-023-036>040-048>070-191000-
SOUTHEAST SOUTH DAKOTA

CITY           SKY/WX    TMP DP  RH WIND       PRES   REMARKS
SIOUX FALLS    CLOUDY    41  37  86 CALM      30.04F
HURON          CLOUDY    40  31  70 S5        29.99F
CHAMBERLAIN    CLOUDY    43  36  76 SE8       29.98F
MITCHELL       CLOUDY    50  28  42 S9        30.01F
YANKTON        CLOUDY    42  35  76 S3        30.05F
$$

ABBREVIATIONS USED IN REMARKS
   TC - TEMPERATURE IN CELSIUS
  WCI - WIND CHILL INDEX
   HX - HEAT INDEX
  VSB - VISIBILITY





USA.gov is the U.S. government's official web portal to all federal, state and local government web resources and services.